Preview of NWS' New Version of Forecast
This preview is not operational and should not be used for support decisions.

Regional Weather Roundup (RWR)

Issued by National Weather Service (NWS)

                            
000
ASUS45 KABQ 200310
RWRNM 
NEW MEXICO REGIONAL WEATHER ROUNDUP
NATIONAL WEATHER SERVICE ALBUQUERQUE NM
900 PM MDT WED JUN 19 2019

NOTE: "FAIR" MEANS FEW OR NO CLOUDS BELOW 12,000 FEET AGL WITH NO
       SIGNIFICANT WEATHER OR OBSTRUCTIONS TO VISION.

      THIS PRODUCT IS RELEASED AS TWO VERSIONS.  ONE VERSION NEAR
      THE TOP OF THE HOUR CONTAINING PRELIMINARY DATA FROM ALBUQUERQUE
      AND OTHER STATIONS.  A FINAL VERSION WITH ADDITIONAL DATA IS 
      ISSUED ABOUT 10 MINUTES AFTER THE HOUR.
 
NMZ501-503-504-510>518-200400-
NORTHWEST PLATEAU/NORTHCENTRAL MOUNTAINS
  
CITY           SKY/WX    TMP DP  RH WIND       PRES   REMARKS
FARMINGTON     FAIR      79  25  13 W8        29.96R                  
LOS ALAMOS       N/A     73  27  18 CALM      30.13R                  
SANTA FE       FAIR      70  29  21 N8        30.04R                  
TAOS           FAIR      66  32  28 W9        30.12R                  
ANGEL FIRE       N/A     61  30  31 S3        30.19R                  

$$
NMZ402-403-502-505>509-200400-
WESTCENTRAL MOUNTAINS/SOUTHWEST MOUNTAINS
  
CITY           SKY/WX    TMP DP  RH WIND       PRES   REMARKS
GALLUP         FAIR      74  29  19 W9        30.09R                  
GRANTS         FAIR      72  25  17 W8        30.11R                  
SILVER CITY    FAIR      76  17  11 W9        30.06S                  

$$
NMZ407-409-411-412-200400-
SOUTHERN DESERTS
  
CITY           SKY/WX    TMP DP  RH WIND       PRES   REMARKS
DEMING         FAIR      83  17   8 W10       29.97R                  
LAS CRUCES     FAIR      83  18   9 W10       29.97R                  
HOLLOMAN AFB   FAIR      86  20   9 S12       29.93R                  
ALAMOGORDO     FAIR      77  23  13 SE7       29.93R                  
T OR C         FAIR      87  14   6 W3        29.93R                  

$$
NMZ519>523-200400-
CENTRAL VALLEYS/CENTRAL HIGHLANDS
  
CITY           SKY/WX    TMP DP  RH WIND       PRES   REMARKS
ALBUQUERQUE    FAIR      84  32  15 N8        29.96R                  
DOUBLE EAGLE     N/A     75  30  19 W9        30.01R                  
MORIARTY ARPT  FAIR      69  33  26 NW7       30.05R                  
CLINES CORNERS FAIR      66  30  26 NW10      30.11R                  
BELEN          FAIR      76  26  15 W7        29.97R                  
SOCORRO        FAIR      82  23  11 NW8       29.94R                  

$$
NMZ524>526-539-540-200400-
SOUTHCENTRAL MOUNTAINS
  
CITY           SKY/WX    TMP DP  RH WIND       PRES   REMARKS
RUIDOSO        FAIR      72  23  16 SW10      30.13S                  

$$
NMZ527>531-200400-
NORTHEAST HIGHLANDS/NORTHEAST PLAINS
  
CITY           SKY/WX    TMP DP  RH WIND       PRES   REMARKS
LAS VEGAS      FAIR      65  34  31 W12       30.07R                  
RATON          FAIR      69  37  30 W7        29.97R                  
CLAYTON        FAIR      65  49  56 SE7       29.90R                  

$$
NMZ532>537-200400-
EASTCENTRAL PLAINS
  
CITY           SKY/WX    TMP DP  RH WIND       PRES   REMARKS
SANTA ROSA     FAIR      81  31  16 W9        29.90R                  
TUCUMCARI      FAIR      74  49  41 E6        29.81R                  
CANNON AFB     FAIR      74  44  33 SW8       29.88R                  
CLOVIS AIRPORT FAIR      76  50  40 E12       29.88R                  

$$
NMZ028-029-538-200400-
SOUTHEAST PLAINS
  
CITY           SKY/WX    TMP DP  RH WIND       PRES   REMARKS
ROSWELL        FAIR      89  30  12 W9        29.82R                  
ARTESIA        FAIR      82  43  24 SW9       29.85R                  
CARLSBAD       FAIR      84  24  11 SW10      29.82R                  
HOBBS          FAIR      79  27  14 SW9       29.86R                  


$$